TimeCDT,TemperatureF,Dew PointF,Humidity,Sea Level PressureIn,VisibilityMPH,Wind Direction,Wind SpeedMPH,Gust SpeedMPH,PrecipitationIn,Events,Conditions,WindDirDegrees,DateUTC
12:53 AM,69.1,64.0,84,29.56,8.0,South,16.1,24.2,N/A,,Clear,190,2014-04-03 05:53:00
1:53 AM,66.9,63.0,87,29.55,7.0,South,16.1,-,N/A,,Clear,180,2014-04-03 06:53:00
2:53 AM,64.9,63.0,93,29.54,6.0,South,13.8,-,N/A,,Clear,190,2014-04-03 07:53:00
3:53 AM,63.0,62.1,97,29.54,5.0,South,11.5,-,N/A,,Clear,190,2014-04-03 08:53:00
4:53 AM,63.0,62.1,97,29.55,4.0,SSW,10.4,-,N/A,,Clear,210,2014-04-03 09:53:00
5:53 AM,62.1,61.0,96,29.55,4.0,South,15.0,-,N/A,,Clear,190,2014-04-03 10:53:00
6:53 AM,62.1,61.0,96,29.57,4.0,South,12.7,-,N/A,,Clear,190,2014-04-03 11:53:00
7:32 AM,60.8,60.8,100,29.63,2.0,SSW,13.8,-,N/A,,Clear,200,2014-04-03 12:32:00
7:40 AM,60.8,59.0,94,29.63,1.8,SSW,13.8,-,N/A,,Clear,200,2014-04-03 12:40:00
7:53 AM,60.1,60.1,100,29.59,2.0,SSW,15.0,-,N/A,,Clear,210,2014-04-03 12:53:00
8:11 AM,60.8,60.8,100,29.64,3.0,SW,13.8,-,N/A,,Clear,220,2014-04-03 13:11:00
8:53 AM,63.0,60.1,90,29.61,5.0,West,8.1,-,N/A,,Clear,270,2014-04-03 13:53:00
9:53 AM,54.0,48.0,80,29.67,6.0,NNW,15.0,-,N/A,,Haze,340,2014-04-03 14:53:00
10:53 AM,57.0,46.0,67,29.68,9.0,NNW,12.7,-,N/A,,Clear,340,2014-04-03 15:53:00
11:53 AM,62.1,43.0,50,29.69,10.0,North,16.1,-,N/A,,Clear,350,2014-04-03 16:53:00
12:53 PM,64.9,41.0,42,29.70,10.0,North,9.2,-,N/A,,Clear,350,2014-04-03 17:53:00
1:53 PM,68.0,41.0,37,29.69,10.0,Variable,4.6,-,N/A,,Clear,0,2014-04-03 18:53:00
2:53 PM,72.0,37.0,28,29.67,10.0,Variable,4.6,-,N/A,,Clear,0,2014-04-03 19:53:00
3:53 PM,75.9,34.0,22,29.66,10.0,WNW,16.1,29.9,N/A,,Clear,290,2014-04-03 20:53:00
4:53 PM,75.0,32.0,21,29.64,10.0,WSW,8.1,-,N/A,,Clear,240,2014-04-03 21:53:00
5:53 PM,75.0,28.0,18,29.64,10.0,WNW,24.2,29.9,N/A,,Scattered Clouds,290,2014-04-03 22:53:00
6:53 PM,73.0,19.9,14,29.68,8.0,WNW,24.2,33.4,N/A,,Overcast,290,2014-04-03 23:53:00
7:12 PM,64.4,35.6,34,29.76,10.0,North,33.4,41.4,N/A,,Overcast,360,2014-04-04 00:12:00
7:53 PM,55.9,36.0,47,29.83,10.0,North,32.2,46.0,N/A,,Mostly Cloudy,350,2014-04-04 00:53:00
8:53 PM,52.0,35.1,53,29.90,10.0,North,24.2,34.5,N/A,,Clear,350,2014-04-04 01:53:00
10:53 PM,45.0,32.0,60,30.00,10.0,North,23.0,31.1,N/A,,Clear,360,2014-04-04 03:53:00
11:53 PM,43.0,32.0,65,30.05,10.0,North,16.1,20.7,N/A,,Clear,360,2014-04-04 04:53:00